This demonstration page uses our WeatherBlox Daily Observations layout. Learn more.

Left ArrowRight Arrow

Hourly Observations for October 18, 2015

Temp ( °F °C ) Dew Point ( °F °C ) Humidity (%) Winds ( mph kmh ) Pressure ( in mb ) Visibility ( mi km ) Precip ( " mm )
12:51 am 00:51 Clear 64 17.8 54 12.2 70 70 ESE 9 15 29.98 1015 10 16 N/A
1:51 am 01:51 Clear 63 17.2 54 12.2 73 73 ESE 7 11 29.99 1016 10 16 N/A
2:51 am 02:51 Mostly Cloudy 66 18.9 53 11.7 63 63 E 12 19 29.97 1015 10 16 N/A
3:51 am 03:51 Mostly Clear 66 18.9 53 11.7 63 63 ESE 12 19 29.96 1015 10 16 N/A
4:51 am 04:51 Mostly Clear 66 18.9 53 11.7 63 63 E 9 15 29.96 1015 10 16 N/A
5:51 am 05:51 Clear 64 17.8 53 11.7 68 68 SE 12 19 29.99 1016 10 16 N/A
6:51 am 06:51 Mostly Sunny 62 16.7 55 12.8 78 78 E 6 9 30.02 1017 10 16 N/A
7:51 am 07:51 Sunny 65 18.3 55 12.8 70 70 ESE 8 13 30.04 1017 10 16 N/A
8:51 am 08:51 Sunny 69 20.6 55 12.8 61 61 SE 7 11 30.04 1017 10 16 N/A
9:51 am 09:51 Sunny 72 22.2 54 12.2 53 53 SSE 8 13 30.02 1017 10 16 N/A
10:51 am 10:51 Partly Cloudy 74 23.3 54 12.2 50 50 SE 7 11 30.01 1016 10 16 N/A
11:51 am 11:51 Mostly Sunny 77 25 53 11.7 43 43 SSE 14 22 29.97 1015 10 16 N/A
12:51 pm 12:51 Sunny 81 27.2 52 11.1 37 37 SSE 13 20 29.92 1013 10 16 N/A
1:51 pm 13:51 Sunny 83 28.3 51 10.6 33 33 SSE 8 13 29.88 1012 10 16 N/A
2:51 pm 14:51 Sunny 81 27.2 51 10.6 35 35 S 6 9 29.86 1011 10 16 N/A
3:51 pm 15:51 Sunny 81 27.2 51 10.6 35 35 S 6 9 29.84 1011 10 16 N/A
4:51 pm 16:51 Sunny 79 26.1 53 11.7 41 41 W 3 6 29.83 1010 10 16 N/A
5:07 pm 17:07 Sunny with Nearby Thunderstorms 78 25.6 54 12.2 43 43 W 7 11 29.77 1008 10 16 N/A
5:24 pm 17:24 Mostly Sunny 78 25.6 53 11.7 42 42 W 8 13 29.77 1008 10 16 N/A
5:51 pm 17:51 Mostly Cloudy with Nearby Thunderstorms 76 24.4 54 12.2 47 47 WSW 8 13 29.85 1011 10 16 N/A
6:10 pm 18:10 Cloudy 75 23.9 54 12.2 48 48 N 8 13 29.80 1009 10 16 N/A
6:24 pm 18:24 Mostly Cloudy with Nearby Thunderstorms 76 24.4 54 12.2 47 47 N 6 9 29.80 1009 10 16 N/A
6:34 pm 18:34 Mostly Cloudy with Thunderstorms 75 23.9 54 12.2 48 48 WSW 8 13 29.83 1010 10 16 N/A
6:51 pm 18:51 Cloudy with Strong Thunderstorms 70 21.1 60 15.6 71 71 SSE 16 26 29.92 1013 4 6 0.03 0.76
7:47 pm 19:47 Partly Cloudy 66 19 61 16 83 83 ESE 16 26 29.88 1012 10 16 0.07 1.78
7:51 pm 19:51 Partly Cloudy 66 18.9 61 16.1 84 84 E 15 24 29.90 1012 10 16 0.07 1.78
8:32 pm 20:32 Mostly Clear with Nearby Thunderstorms 68 20 59 15 73 73 N N/A 29.88 1012 10 16 N/A
8:47 pm 20:47 Clear 68 20 59 15 73 73 SE 12 19 29.88 1012 10 16 N/A
8:51 pm 20:51 Clear 68 20 59 15 73 73 SSE 9 15 29.91 1013 10 16 N/A
9:51 pm 21:51 Partly Cloudy with Light Rain 64 17.8 61 16.1 90 90 SSE 5 7 29.91 1013 10 16 N/A
10:51 pm 22:51 Clear 68 20 57 13.9 68 68 ESE 10 17 29.89 1012 10 16 N/A
11:48 pm 23:48 Mostly Cloudy with Thunderstorms 66 19 57 14 73 73 SSE 6 9 29.88 1012 10 16 N/A
11:51 pm 23:51 Mostly Cloudy with Thunderstorms 67 19.4 58 14.4 73 73 SSE 7 11 29.88 1012 10 16 N/A

Powered by AerisWeather